Content
SEND FEEDBACK

Daily
Averages
Monthly
Summary
United States of America

BANTRY, NORTH DAKOTA


Home > North America > United States > North Dakota
Elevation: 1460 feet     Latitude: 48 30N     Longitude: 100 36W

WEATHER
 
SELECT A DAY
Number of Records: 85,790;   Date Range: 11/13/98 - 7/20/14
 
SHARE

PRINT THIS DATA

[ ← Previous Day ]
WEATHER ALMANAC - JANUARY 22, 2013
[ Next Day → ]
[ °C ]   °F
Weather ElementAverageHighLow
Temperature-4.2 °F5 °F (3:55 pm)-20.2 °F (2:35 am)
Dewpoint-9.2 °F1.4 °F (7:35 pm)-25.6 °F (2:35 am)
Humidity79.2 %92 % (9:55 pm)66 % (11:35 am)
Barometer30.16 in30.24 in (2:55 am)30.08 in (8:15 pm)
Wind Speed5.1 mph10.4 mph (6:55 am)
Weather ElementAverage
Visibility10 mi
Wind DirectionSSW (207.2 °)

Weather ElementTotal
Precipitation---
Heating Degree Days72.6 (Base 65)
Averaged from 69 records on January 22, 2013
WEATHER CONDITIONS BREAKOUT
WIND DIRECTION BREAKOUT
WEATHER BY HOUR - JANUARY 22, 2013
[ °C ]   °F
Local TimeTemperatureDewpointHumidityBarometerVisibilityWind DirectionWind SpeedGust SpeedPrecipitationEventsConditions
12:35 AM-14.8 °F-20.2 °F77 %30.23 in10.0 miWNW (300°)6.9 mphClear
1:15 AM-16.6 °F-20.2 °F84 %30.22 in10.0 miWNW (300°)6.9 mphClear
1:55 AM-18.4 °F-22.0 °F84 %30.21 in10.0 miWest (260°)5.8 mphClear
2:15 AM-18.4 °F-22.0 °F84 %30.21 in10.0 miWest (270°)6.9 mphClear
2:35 AM-20.2 °F-25.6 °F76 %30.22 in10.0 miWNW (290°)5.8 mphClear
2:55 AM-20.2 °F-25.6 °F76 %30.24 in10.0 miWest (280°)5.8 mphClear
3:15 AM-20.2 °F-25.6 °F76 %30.23 in10.0 miWest (270°)6.9 mphClear
3:35 AM-18.4 °F-22.0 °F84 %30.23 in10.0 miWNW (290°)8.1 mphClear
3:55 AM-18.4 °F-22.0 °F84 %30.23 in10.0 miWNW (290°)5.8 mphClear
4:15 AM-18.4 °F-22.0 °F84 %30.23 in10.0 miWest (280°)6.9 mphClear
4:35 AM-18.4 °F-22.0 °F84 %30.23 in10.0 miWSW (250°)9.2 mphClear
4:55 AM-14.8 °F-20.2 °F77 %30.21 in10.0 miWSW (240°)9.2 mphClear
5:15 AM-14.8 °F-20.2 °F77 %30.20 in10.0 miWSW (240°)8.1 mphPartly Cloudy
5:35 AM-14.8 °F-20.2 °F77 %30.20 in10.0 miSW (230°)8.1 mphPartly Cloudy
5:55 AM-13.0 °F-20.2 °F70 %30.19 in10.0 miSW (220°)4.6 mphClear
6:15 AM-14.8 °F-20.2 °F77 %30.20 in10.0 miSW (230°)6.9 mphClear
6:35 AM-16.6 °F-20.2 °F84 %30.21 in10.0 miSW (230°)8.1 mphClear
6:55 AM-16.6 °F-20.2 °F84 %30.21 in10.0 miSW (230°)10.4 mphPartly Cloudy
7:15 AM-14.8 °F-20.2 °F77 %30.21 in10.0 miSW (230°)8.1 mphMostly Cloudy
7:35 AM-11.2 °F-16.6 °F77 %30.21 in10.0 miSW (230°)10.4 mphOvercast
7:55 AM-11.2 °F-16.6 °F77 %30.19 in10.0 miSW (230°)8.1 mphOvercast
8:15 AM-9.4 °F-14.8 °F77 %30.20 in10.0 miSW (230°)9.2 mphOvercast
8:35 AM-7.6 °F-13.0 °F77 %30.19 in10.0 miSW (230°)6.9 mphOvercast
8:55 AM-7.6 °F-11.2 °F84 %30.19 in10.0 miSW (220°)4.6 mphOvercast
9:15 AM-7.6 °F-11.2 °F84 %30.19 in10.0 miSW (220°)5.8 mphOvercast
9:35 AM-5.8 °F-11.2 °F77 %30.19 in10.0 miSW (220°)5.8 mphOvercast
9:55 AM-4.0 °F-9.4 °F78 %30.19 in10.0 miWSW (240°)3.5 mphOvercast
10:15 AM-4.0 °F-9.4 °F78 %30.20 in10.0 miWSW (240°)4.6 mphOvercast
10:35 AM-2.2 °F-9.4 °F71 %30.20 in10.0 miWSW (250°)3.5 mphMostly Cloudy
10:55 AM-2.2 °F-9.4 °F71 %30.19 in10.0 miSW (230°)3.5 mphPartly Cloudy
11:15 AM-2.2 °F-9.4 °F71 %30.19 in10.0 miWSW (240°)3.5 mphClear
11:35 AM-0.4 °F-9.4 °F66 %30.19 in10.0 miSW (230°)4.6 mphPartly Cloudy
11:55 AM-0.4 °F-7.6 °F72 %30.20 in10.0 miWSW (250°)6.9 mphSnowLight Snow
12:15 PM-0.4 °F-7.6 °F72 %30.18 in10.0 miWSW (250°)5.8 mphPartly Cloudy
12:35 PM-0.4 °F-5.8 °F78 %30.18 in10.0 miWSW (240°)5.8 mphScattered Clouds
12:55 PM1.4 °F-5.8 °F72 %30.16 in10.0 miWSW (250°)5.8 mphMostly Cloudy
1:15 PM1.4 °F-5.8 °F72 %30.15 in10.0 miWSW (240°)6.9 mphScattered Clouds
1:35 PM1.4 °F-5.8 °F72 %30.14 in10.0 miSW (230°)8.1 mphScattered Clouds
1:55 PM1.4 °F-4.0 °F78 %30.14 in10.0 miSW (220°)8.1 mphPartly Cloudy
2:15 PM1.4 °F-4.0 °F78 %30.13 in10.0 miSW (220°)6.9 mphClear
2:35 PM1.4 °F-4.0 °F78 %30.12 in10.0 miSSW (200°)4.6 mphClear
2:55 PM3.2 °F-2.2 °F78 %30.12 in10.0 miCalmMostly Cloudy
3:15 PM3.2 °F-2.2 °F78 %30.12 in10.0 miCalmOvercast
3:35 PM3.2 °F-2.2 °F78 %30.11 in10.0 miSSW (200°)4.6 mphOvercast
3:55 PM5.0 °F-2.2 °F72 %30.11 in10.0 miSSW (200°)3.5 mphOvercast
4:15 PM5.0 °F-0.4 °F78 %30.11 in10.0 miSSW (210°)5.8 mphOvercast
4:35 PM5.0 °F-0.4 °F78 %30.11 in10.0 miSSW (200°)4.6 mphOvercast
4:55 PM5.0 °F-0.4 °F78 %30.11 in10.0 miSSW (210°)4.6 mphOvercast
5:15 PM5.0 °F-0.4 °F78 %30.10 in10.0 miSSW (200°)5.8 mphMostly Cloudy
5:35 PM5.0 °F-0.4 °F78 %30.09 in10.0 miCalmOvercast
5:55 PM5.0 °F-0.4 °F78 %30.10 in10.0 miSSW (200°)3.5 mphOvercast
6:15 PM5.0 °F-0.4 °F78 %30.09 in10.0 miCalmOvercast
6:35 PM5.0 °F-0.4 °F78 %30.09 in10.0 miCalmOvercast
6:55 PM5.0 °F-0.4 °F78 %30.09 in10.0 miCalmOvercast
7:15 PM5.0 °F-0.4 °F78 %30.09 in10.0 miCalmOvercast
7:35 PM5.0 °F1.4 °F85 %30.09 in10.0 miCalmOvercast
7:55 PM5.0 °F1.4 °F85 %30.09 in10.0 miCalmOvercast
8:15 PM5.0 °F1.4 °F85 %30.08 in10.0 miCalmOvercast
8:35 PM5.0 °F1.4 °F85 %30.08 in10.0 miCalmOvercast
8:55 PM5.0 °F1.4 °F85 %30.09 in10.0 miNW (310°)3.5 mphOvercast
9:15 PM5.0 °F-0.4 °F78 %30.09 in10.0 miNNW (340°)4.6 mphScattered Clouds
9:35 PM3.2 °F-0.4 °F85 %30.08 in10.0 miCalmClear
9:55 PM1.4 °F-0.4 °F92 %30.09 in10.0 miWNW (300°)4.6 mphClear
10:15 PM1.4 °F-0.4 °F92 %30.09 in10.0 miWNW (300°)4.6 mphClear
10:35 PM1.4 °F-0.4 °F92 %30.09 in10.0 miNW (320°)5.8 mphPartly Cloudy
10:55 PM1.4 °F-2.2 °F85 %30.10 in10.0 miNNW (330°)6.9 mphPartly Cloudy
11:15 PM1.4 °F-2.2 °F85 %30.10 in10.0 miNW (320°)6.9 mphClear
11:35 PM-0.4 °F-4.0 °F85 %30.11 in10.0 miNW (310°)6.9 mphClear
11:55 PM-0.4 °F-4.0 °F85 %30.12 in10.0 miNW (310°)6.9 mphClear
Hourly data recorded from KRUG, located miles away from Bantry, North Dakota







STORIES FROM OUR PARTNERS